Regional Weather Roundup
Issued by NWS

Home | Current Version | Previous Version | Text Only | Print | Product List | Glossary On
Versions: 1 2 3 4 5 6 7 8 9 10 11 12 13 14 15 16 17 18 19 20 21 22 23 24 25 26 27 28 29 30 31 32 33 34 35 36 37 38 39 40 41 42 43 44 45 46 47 48 49 50
000
ASCA44 KEWX 021220
RWRMX

LATIN AMERICA AND CARIBBEAN REGIONAL WEATHER ROUNDUP
NATIONAL WEATHER SERVICE AUSTIN/SAN ANTONIO TX
700 AM CDT MON MAY 02 2016

NOTE: "FAIR" INDICATED FEW OR NO CLOUDS BELOW 12,000 FEET WITH NO
SIGNIFICANT WEATHER AND/OR OBSTRUCTIONS TO VISIBILITY.

BAJA CALIFORNIA

CITY           SKY/WX    TMP DP  RH WIND       PRES   REMARKS
LA PAZ         CLEAR     55  50  82 S5        29.92
S.J. DEL CABO  CLEAR     63  55  77 NW6       29.91
TIJUANA        PTCLDY    54  46  76 CALM      30.00F

NORTHWESTERN MEXICO

CITY           SKY/WX    TMP DP  RH WIND       PRES   REMARKS
HERMOSILLO     CLEAR     59  46  63 CALM      29.93
CD. JUAREZ     CLEAR     43  30  61 E12       30.16  WCI  37

NORTHEASTERN MEXICO

CITY           SKY/WX    TMP DP  RH WIND       PRES   REMARKS
MATAMOROS      CLOUDY    77  75  94 NW5       29.85  FOG
MONCLOVA       CLOUDY    64  55  72 NE15      30.04  FOG
MONTERREY      LGT RAIN  68  64  88 NW12      29.93R FOG
REYNOSA        CLOUDY    75  72  88 NW7       29.87  FOG
SALTILLO       CLOUDY    64  63  94 N6        30.12  FOG
CD. VICTORIA   CLOUDY    75  75 100 N5        29.87

WESTERN MEXICO

CITY           SKY/WX    TMP DP  RH WIND       PRES   REMARKS
AGUASCALIENTES CLEAR     50  14  23 NE6       30.17  WCI  48
COLIMA         MOCLDY    72  55  56 CALM      29.92S
DEL BAJIO      PTCLDY    52  18  25 N5        30.21R
GUADALAJARA    CLEAR     52  32  46 S2        30.09
MAZATLAN       CLEAR     61  59  94 N3        29.87R
P. VALLARTA    CLOUDY    72  66  83 CALM      29.84R
URUAPAN        CLOUDY    55  50  82 CALM      30.08
ZACATECAS        N/A    N/A N/A N/A MISG        N/A

CENTRAL MEXICO

CITY           SKY/WX    TMP DP  RH WIND       PRES   REMARKS
CUERNAVACA     PTCLDY    70  27  19 CALM      30.02
MEXICO CITY    PTCLDY    57  36  44 E5        30.27R
MORELIA        MOCLDY    46  30  53 CALM      30.16
POZA RICA      MOCLDY    75  75 100 N8        29.79  FOG
QUERETARO      PTCLDY    48  27  43 CALM      30.22R
S. LUIS POTOSI CLEAR     52  37  58 CALM      30.15R
TAMPICO        PTCLDY    79  75  89 CALM      29.82R FOG
TOLUCA         PTCLDY    43  36  75 CALM      30.35R

SOUTHERN MEXICO

CITY           SKY/WX    TMP DP  RH WIND       PRES   REMARKS
ACAPULCO       PTCLDY    72  70  94 CALM      29.80R
B. DE HUATULCO MOCLDY    72  61  68 W8        29.87
OAXACA         PTCLDY    64  54  68 N3        30.11
P. ESCONDIDO   CLEAR     73  72  94 W15       29.90
VERACRUZ       PTCLDY    75  72  88 NE3       29.78R

YUCATAN PENINSULA

CITY           SKY/WX    TMP DP  RH WIND       PRES   REMARKS
CAMPECHE       PTCLDY    81  75  83 SE17      29.78R
CANCUN         PTCLDY    81  75  83 E9        29.89R
CHETUMAL       MOCLDY    82  79  89 SE12      29.83  HX  93
CD. DEL CARMEN MOCLDY    84  75  74 SE17      29.78  HX  92
COZUMEL        PTCLDY    73  73 100 SE5       29.89R
MERIDA         PTCLDY    79  73  83 E12       29.85R
MINATITLAN     CLOUDY    77  68  73 CALM      29.71
TAPACHULA      PTCLDY    79  75  89 CALM      29.78R
TUX. GUTIERREZ CLEAR     72  57  60 SW3       29.86R
VILLAHERMOSA     N/A    N/A N/A N/A MISG        N/A

CENTRAL AMERICA

CITY           SKY/WX    TMP DP  RH WIND       PRES   REMARKS
MANAGUA        PTSUNNY   79  77  94 E5        29.77S FOG

CARIBBEAN

CITY           SKY/WX    TMP DP  RH WIND       PRES   REMARKS
ARUBA          MOSUNNY   84  75  74 E18       29.86R HX  92
CURACAO        MOSUNNY   84  77  79 E14       29.92R HX  94
KINGSTON       MOSUNNY   82  73  74 NW5       29.92R
SAN JUAN       MOSUNNY   79  72  78 CALM      30.03R
SANTO DOMINGO  MOSUNNY   75  73  94 NE6       29.97R
ST. CROIX      PTSUNNY   77  73  88 E6        30.04R
ST. KITTS      MOSUNNY   81  75  83 E15       30.00S
ST. MAARTEN    SHOWER    73  73 100 S1        30.03R
ST. THOMAS     CLOUDY    79  73  83 E9        30.01R

$$





USA.gov is the U.S. government's official web portal to all federal, state and local government web resources and services.